Home > Weather > San Marino > Past weeks

Flag for San Marino Weather for the Past 2 Weeks in San Marino, San Marino

Now
46 °F

Fog.


Feels Like: 44 °F
Forecast: 35 / 40 °F
Wind: 5 mph from Northwest

Location: Rimini Airport

Current Time: Feb 14, 2016 at 8:29:19 PM

Latest Report: Feb 14, 2016 at 7:45 PM


Visibility: 3 mi

Pressure: 29.42 "Hg (27.13 "Hg at 666m altitude)

Humidity: 100%

Dew point: 46 °F

Location of San MarinoLocation

Historic Weather in San Marino — Graph

°F

San Marino Temperature Yesterday

Maximum temperature yesterday: 54 °F (at 8:45 PM)
Minimum temperature yesterday: 39 °F (at 6:45 AM)
Average temperature yesterday: 46 °F

High & Low Weather Summary for the Past Weeks

 TemperatureHumidityPressure
High64 °F (Jan 31, 12:15 PM)100% (Jan 31, 10:45 PM)30.42 "Hg (Jan 31, 10:45 PM)
Low32 °F (Feb 5, 5:15 AM)4% (Feb 7, 4:45 AM)29.24 "Hg (Feb 14, 12:15 PM)
Average48 °F82%29.93 "Hg
* Reported Jan 30 6:15 PM — Feb 14 6:45 PM, San Marino, Weather by CustomWeather, © 2016

Note: Actual official high and low records may vary slightly from our data, if they occured in-between our weather recording intervals... More about our weather records

Advertising

San Marino Weather History for the Previous 24 Hours

 ConditionsComfort  
Time TempWeatherWind HumidityBarometerVisibility
6:45 PM
Sun, Feb 14
46 °FPassing clouds.2 mph100%29.39 "Hg4 mi
6:15 PM46 °FPassing clouds.5 mph100%29.36 "Hg4 mi
5:45 PM46 °FPassing clouds.8 mph100%29.36 "Hg4 mi
5:15 PM48 °FScattered clouds.9 mph94%29.36 "HgN/A
4:45 PM48 °FScattered clouds.13 mph94%29.33 "HgN/A
4:15 PM50 °FScattered clouds.14 mph88%29.33 "HgN/A
3:45 PM50 °FScattered clouds.13 mph88%29.33 "HgN/A
3:15 PM52 °FScattered clouds.9 mph82%29.30 "HgN/A
2:45 PM52 °FScattered clouds.12 mph88%29.30 "HgN/A
2:15 PM52 °FScattered clouds.10 mph88%29.27 "HgN/A
1:45 PM52 °FScattered clouds.13 mph94%29.27 "HgN/A
1:15 PM59 °FScattered clouds.17 mph82%29.24 "HgN/A
12:45 PM55 °FScattered clouds.10 mph88%29.24 "HgN/A
12:15 PM54 °FScattered clouds.15 mph94%29.24 "Hg5 mi
11:45 AM52 °FLight rain. Fog.10 mph88%29.27 "Hg3 mi
11:15 AM50 °FLight rain. Fog.10 mph94%29.27 "Hg3 mi
10:45 AM50 °FLight rain. Fog.8 mph100%29.30 "Hg2 mi
10:15 AM46 °FLight rain. Fog.10 mph100%29.30 "Hg2 mi
9:45 AM46 °FDrizzle. Fog.6 mph100%29.33 "Hg1 mi
9:15 AM46 °FDrizzle. Fog.3 mph100%29.33 "Hg1 mi
8:45 AM46 °FDrizzle. Fog.2 mph100%29.36 "Hg1 mi
8:15 AM46 °FFog.5 mph100%29.36 "Hg0 mi
7:45 AM45 °FFog.6 mph100%29.39 "Hg0 mi
7:15 AM45 °FFog.1 mph100%29.39 "Hg0 mi
6:45 AM45 °FFog.1 mph100%29.42 "Hg0 mi
6:15 AM45 °FFog.No wind100%29.39 "Hg0 mi
5:45 AM45 °FFog.5 mph100%29.39 "Hg0 mi
5:15 AM45 °FFog.No wind100%29.42 "Hg1 mi
4:45 AM45 °FFog.1 mph100%29.42 "Hg1 mi
4:15 AM45 °FFog.7 mph100%29.42 "Hg1 mi
3:45 AM45 °FFog.8 mph100%29.42 "Hg0 mi
3:15 AM45 °FFog.7 mph100%29.45 "Hg0 mi
2:45 AM45 °FFog.7 mph100%29.39 "Hg0 mi
2:15 AM45 °FFog.7 mph100%29.42 "Hg0 mi
1:45 AM45 °FFog.7 mph100%29.42 "Hg1 mi
12:15 AM50 °FPassing clouds.No wind82%29.42 "HgN/A
11:45 PM
Sat, Feb 13
50 °FPassing clouds.No wind88%29.42 "HgN/A
11:15 PM48 °FPassing clouds.2 mph87%29.42 "HgN/A
10:45 PM50 °FPassing clouds.3 mph88%29.42 "HgN/A
10:15 PM50 °FPassing clouds.5 mph82%29.42 "HgN/A
9:45 PM52 °FPassing clouds.3 mph77%29.42 "HgN/A
9:15 PM50 °FPassing clouds.2 mph76%29.42 "HgN/A
8:45 PM54 °FPassing clouds.8 mph72%29.42 "HgN/A
8:15 PM50 °FPassing clouds.8 mph82%29.42 "HgN/A
Weather by CustomWeather, © 2016

See weather overviewHow to use our weather pages